This is the latest recevied weather packets stored in our database for station/object DR0T. If no packets are shown the sender has not sent any weather packets the latest 1 day(s).
| Time | Temp. | Humidity | Pressure | Rain* | Wind** | Luminosity | Snow |
|---|---|---|---|---|---|---|---|
| 1836274827 | 18.89° C | 70% | 1022 hPa | 0 mm | 0.89 m/s, 236° | - | - |
| 1836274528 | 18.89° C | 69% | 1022 hPa | 0 mm | 1.34 m/s, 235° | - | - |
| 1836274382 | 18.89° C | 70% | 1022 hPa | 0 mm | 0.89 m/s, 236° | - | - |
| 1836274224 | 18.89° C | 69% | 1022.1 hPa | 0 mm | 1.34 m/s, 235° | - | - |
| 1836273925 | 19.44° C | 68% | 1022 hPa | 0 mm | 0.89 m/s, 236° | - | - |
| 1778022451 | 11.11° C | 99% | 1008.5 hPa | 0 mm | 2.24 m/s, 244° | - | - |
| 1778022149 | 11.11° C | 99% | 1008.3 hPa | 0 mm | 2.24 m/s, 241° | - | - |
| 1778021848 | 11.11° C | 99% | 1008.4 hPa | 0 mm | 1.79 m/s, 247° | - | - |
| 1778021547 | 11.11° C | 99% | 1008.4 hPa | 0 mm | 1.79 m/s, 241° | - | - |
| 1778021247 | 11.11° C | 99% | 1008.4 hPa | 0 mm | 1.79 m/s, 234° | - | - |
| 1778020944 | 10.56° C | 99% | 1008.4 hPa | 0.25 mm | 1.34 m/s, 234° | - | - |
| 1778020647 | 10.56° C | 99% | 1008.4 hPa | 0.25 mm | 1.34 m/s, 231° | - | - |
| 1778020342 | 10.56° C | 99% | 1008.4 hPa | 0.25 mm | 1.34 m/s, 230° | - | - |
| 1778020040 | 10.56° C | 99% | 1008.4 hPa | 0.25 mm | 1.34 m/s, 236° | - | - |
| 1778019739 | 10.56° C | 99% | 1008.5 hPa | 0.51 mm | 1.34 m/s, 234° | - | - |
| 1778019438 | 10.56° C | 99% | 1008.3 hPa | 0.51 mm | 1.34 m/s, 232° | - | - |
| 1778019137 | 10.56° C | 99% | 1008.4 hPa | 0.76 mm | 1.34 m/s, 234° | - | - |
| 1778018843 | 10.56° C | 99% | 1008.4 hPa | 1.02 mm | 1.79 m/s, 241° | - | - |
| 1778018555 | 11.11° C | 99% | 1008.4 hPa | 1.27 mm | 1.34 m/s, 239° | - | - |
| 1778018256 | 11.11° C | 99% | 1008.4 hPa | 1.52 mm | 1.34 m/s, 232° | - | - |
| 1778017952 | 11.11° C | 99% | 1008.4 hPa | 1.78 mm | 1.79 m/s, 231° | - | - |
| 1778017651 | 11.11° C | 99% | 1008.5 hPa | 1.78 mm | 1.34 m/s, 238° | - | - |
| 1778017350 | 11.11° C | 99% | 1008.5 hPa | 1.52 mm | 1.34 m/s, 229° | - | - |
| 1778017049 | 11.11° C | 99% | 1008.5 hPa | 1.52 mm | 1.79 m/s, 239° | - | - |
| 1778016747 | 11.11° C | 99% | 1008.6 hPa | 1.78 mm | 1.79 m/s, 236° | - | - |
* Rain latest hour (hover to see other rain measurements)
** Current wind speed in m/s (hover to see current wind gust speed)